EW9060 Weather Reports


time (UTC)temp
C
wind
direction
speed
KPH
gust
KPH
rain 1hr
cm
rain 24hr
cm
rain mn
cm
humidity
%
barometer
mb
20260504081554 12 147 1.6 6.4 0.00 0.00 0.00 77 1014.9
20260504044531 15 159 4.8 12.9 0.00 0.00 0.00 66 1013.8
20260504043026 15 238 3.2 14.5 0.00 0.00 0.00 66 1013.6
20260504041523 16 164 3.2 12.9 0.00 0.00 0.00 65 1013.5
20260504040022 16 109 4.8 12.9 0.00 0.00 0.00 65 1013.3
20260504034521 16 154 1.6 14.5 0.00 0.00 0.00 64 1013.1
20260504033020 16 251 4.8 12.9 0.00 0.00 0.00 64 1012.8
20260504031520 17 351 3.2 16.1 0.00 0.00 0.00 64 1012.7
20260504030020 17 221 4.8 16.1 0.00 0.00 0.00 63 1012.6
20260504024519 17 209 4.8 17.7 0.00 0.00 0.00 61 1012.4
20260504023018 18 228 8.0 19.3 0.00 0.00 0.00 60 1012.3
20260504021517 18 180 8.0 19.3 0.00 0.00 0.00 58 1012.2
20260504020017 19 19 8.0 17.7 0.00 0.00 0.00 56 1012.2
20260504014524 20 289 8.0 19.3 0.00 0.00 0.00 53 1012.1
20260504013016 20 173 4.8 19.3 0.00 0.00 0.00 53 1012.0
20260504011514 20 281 3.2 16.1 0.00 0.00 0.00 52 1012.0
20260504010117 20 17 4.8 17.7 0.00 0.00 0.00 52 1011.8
20260504004514 21 178 6.4 19.3 0.00 0.00 0.00 51 1011.9
20260504003013 21 178 6.4 19.3 0.00 0.00 0.00 50 1011.8
20260504001511 21 115 4.8 12.9 0.00 0.00 0.00 50 1012.0
20260504000022 20 236 9.7 17.7 0.00 0.00 0.00 51 1012.1
20260503234511 20 155 8.0 19.3 0.00 0.00 0.00 52 1012.2
20260503233008 20 237 3.2 17.7 0.00 0.00 0.00 53 1012.3
20260503231506 20 244 6.4 16.1 0.00 0.00 0.00 53 1012.4
20260503230007 20 311 4.8 17.7 0.00 0.00 0.00 53 1012.3
20260503224506 20 203 8.0 16.1 0.00 0.00 0.00 52 1012.1
20260503223006 20 184 6.4 19.3 0.00 0.00 0.00 52 1012.1
20260503221504 20 188 9.7 19.3 0.00 0.00 0.00 53 1012.1
20260503220002 20 193 4.8 22.5 0.00 0.00 0.00 55 1012.2
20260503214506 20 163 6.4 22.5 0.00 0.00 0.00 55 1012.3
20260503213002 20 196 8.0 17.7 0.00 0.00 0.00 54 1012.4
20260503211502 20 167 8.0 19.3 0.00 0.00 0.00 54 1012.6
20260503204609 20 185 8.0 25.7 0.00 0.00 0.00 52 1012.6
20260503203106 20 170 4.8 24.1 0.00 0.00 0.00 54 1012.8
20260503201554 19 166 8.0 19.3 0.00 0.00 0.00 54 1012.7
20260503200053 18 115 6.4 20.9 0.00 0.00 0.00 56 1012.8
20260503194607 18 172 9.7 22.5 0.00 0.00 0.00 55 1012.8
20260503193048 18 236 8.0 25.7 0.00 0.00 0.00 55 1012.8
20260503191547 18 217 9.7 25.7 0.00 0.00 0.00 57 1012.9
20260503190057 18 218 8.0 25.7 0.00 0.00 0.00 56 1013.1
20260503184544 18 220 6.4 19.3 0.00 0.00 0.00 58 1012.9
20260503183050 17 166 6.4 27.4 0.00 0.00 0.00 59 1012.9
20260503181538 17 261 6.4 17.7 0.00 0.00 0.00 62 1012.9
20260503180035 17 178 9.7 16.1 0.00 0.00 0.00 64 1013.1
20260503174531 16 118 6.4 19.3 0.00 0.00 0.00 65 1013.2
20260503173044 16 116 8.0 22.5 0.00 0.00 0.00 67 1013.1
20260503171527 16 234 6.4 20.9 0.00 0.00 0.00 67 1012.9